Weather History for Penn Yan, NY

Change the Weather History Date:

Wednesday, October 3, 2012

  Actual Average (KITH) Record (KITH)
Temperature  
Mean Temperature 68 °F -  
Max Temperature 73 °F 63 °F 83 °F (1931)
Min Temperature 62 °F 43 °F 30 °F (1975)
Cooling Degree Days 2    
Growing Degree Days 18 (Base 50)    
Moisture  
Dew Point 62 °F    
Average Humidity 88    
Maximum Humidity 97    
Minimum Humidity 73    
Precipitation  
Precipitation 0.00 in - - ()
Sea Level Pressure  
Sea Level Pressure 30.04 in    
Wind  
Wind Speed 1 mph (SSW)    
Max Wind Speed 7 mph    
Max Gust Speed -    
Visibility 7 miles    
Events      
Averages and records for this station are not official NWS values.
T = Trace of Precipitation, MM = Missing Value Source: NWS Daily Summary

Daily Weather History Graph

Daily Weather History Graph

Search for Another Location

Airport:

Trip Planner

Search our weather history database for the weather conditions in past years. The results will help you decide how hot, cold, wet, or windy it might be!

Date:

Astronomy

Oct. 03, 2012 Rise Set
Actual Time 7:08 AM EDT 6:45 PM EDT
Civil Twilight 6:39 AM EDT 7:13 PM EDT
Nautical Twilight 6:07 AM EDT 7:46 PM EDT
Astronomical Twilight 5:34 AM EDT 8:18 PM EDT
Moon 8:30 PM EDT (10/3) 10:34 AM EDT (10/3)
Length of Visible Light 12h 33m
Length of Day
11h 37m
Waning Gibbous, 89% of the Moon is Illuminated
Oct 3
Waning Gibbous
Oct 8
Last Quarter
Oct 15
New
Oct 21
First Quarter
Oct 29
Full

Hourly Weather History & Observations

Time (EDT) Temp. Dew Point Humidity Pressure Visibility Wind Dir Wind Speed Gust Speed Precip Events Conditions
12:44 AM 62.6 °F 59.0 °F 88% 29.97 in 7.0 mi Calm Calm - N/A   Overcast
12:53 AM 63.0 °F 59.0 °F 87% 29.96 in 7.0 mi South 5.8 mph - N/A   Overcast
1:53 AM 63.0 °F 59.0 °F 87% 29.96 in 10.0 mi South 4.6 mph - N/A   Overcast
2:53 AM 63.0 °F 59.0 °F 87% 29.96 in 10.0 mi Calm Calm - N/A   Overcast
3:53 AM 62.1 °F 60.1 °F 93% 29.97 in 9.0 mi Calm Calm - N/A   Overcast
4:48 AM 62.6 °F 60.8 °F 94% 29.98 in 8.0 mi Calm Calm - N/A   Overcast
4:53 AM 62.1 °F 60.1 °F 93% 29.97 in 7.0 mi Calm Calm - N/A   Overcast
5:33 AM 62.6 °F 60.8 °F 94% 29.98 in 6.0 mi Calm Calm - N/A   Overcast
5:53 AM 62.1 °F 60.1 °F 93% 29.98 in 5.0 mi Calm Calm - N/A   Overcast
6:53 AM 62.1 °F 60.1 °F 93% 30.00 in 4.0 mi Calm Calm - N/A   Overcast
7:19 AM 62.6 °F 60.8 °F 94% 30.01 in 2.5 mi Calm Calm - N/A   Overcast
7:30 AM 62.6 °F 60.8 °F 94% 30.01 in 3.0 mi Calm Calm - N/A   Overcast
7:53 AM 63.0 °F 60.1 °F 90% 30.01 in 3.0 mi Calm Calm - N/A   Overcast
8:53 AM 64.0 °F 61.0 °F 90% 30.02 in 7.0 mi Calm Calm - N/A   Overcast
9:53 AM 66.9 °F 61.0 °F 81% 30.03 in 10.0 mi SSW 6.9 mph - N/A   Overcast
11:53 AM 70.0 °F 62.1 °F 76% 30.03 in 10.0 mi Calm Calm - N/A   Overcast
12:26 PM 71.6 °F 62.6 °F 73% 30.04 in 10.0 mi Calm Calm - N/A   Scattered Clouds
12:50 PM 71.6 °F 64.4 °F 78% 30.04 in 10.0 mi Calm Calm - N/A   Mostly Cloudy
12:53 PM 72.0 °F 64.0 °F 76% 30.03 in 10.0 mi Calm Calm - N/A   Overcast
1:53 PM 73.0 °F 64.0 °F 73% 30.03 in 10.0 mi Calm Calm - N/A   Overcast
2:53 PM 70.0 °F 64.0 °F 81% 30.04 in 10.0 mi Calm Calm - N/A   Overcast
3:53 PM 70.0 °F 64.0 °F 81% 30.05 in 10.0 mi Variable 3.5 mph - N/A   Overcast
4:08 PM 69.8 °F 62.6 °F 78% 30.06 in 10.0 mi Variable 3.5 mph - N/A   Overcast
4:53 PM 70.0 °F 64.0 °F 81% 30.05 in 10.0 mi Calm Calm - N/A   Mostly Cloudy
5:53 PM 68.0 °F 64.0 °F 87% 30.08 in 9.0 mi Calm Calm - N/A   Scattered Clouds
6:53 PM 66.0 °F 63.0 °F 90% 30.08 in 7.0 mi Calm Calm - N/A   Mostly Cloudy
7:53 PM 64.0 °F 62.1 °F 93% 30.10 in 7.0 mi Calm Calm - N/A   Overcast
8:53 PM 64.0 °F 62.1 °F 93% 30.11 in 5.0 mi Calm Calm - N/A   Overcast
9:16 PM 62.6 °F 60.8 °F 94% 30.12 in 5.0 mi Calm Calm - N/A   Overcast
9:53 PM 63.0 °F 62.1 °F 97% 30.12 in 5.0 mi Calm Calm - N/A   Overcast
10:53 PM 63.0 °F 62.1 °F 97% 30.12 in 4.0 mi Calm Calm - N/A   Overcast
11:20 PM 64.4 °F 62.6 °F 94% 30.14 in 4.0 mi WSW 3.5 mph - N/A   Mostly Cloudy
11:53 PM 64.0 °F 62.1 °F 93% 30.12 in 5.0 mi Calm Calm - N/A   Overcast